SKYNET 5B

Last updated on Sun Nov 16 2025 00:03:40 GMT+0000 (Coordinated Universal Time)

1 32294U 07056B 25319.45712189 .00000149 00000+0 00000+0 0 9997 2 32294 4.7060 76.0593 0003706 157.2980 11.1045 1.00273680 66053
UTC large
Height (km)
Speed (km/s)
/
Latitude / Longitude
Inclination (degrees)
Orbital Period (minutes)
Azimuth
Elevation
Range (km)
Doppler Factor

Next 0 passes for location: London (51.5072 / 0.1276)

Sorry there are no passes over London.